Retour au catalogue

PSLV R/B

ActifHEO
NORAD 47257·ROCKET BODY·🇮🇳 India

Lancé Dec 17, 2020 depuis Satish Dhawan Space Centre

Loading…

Prochains Passages (prochaines 24 heures)

TLE

FraisSource: Space-Track

Époque: Sep 14, 2026, 21:53 UTC

1 47257U 20099B   26257.91186115  .00174026  14117-6  15468-2 0  9995
2 47257  17.8132  92.4004 5329976  94.0351 325.5926  5.22594276 91241

Suivez PSLV R/B en temps réel avec AllMySat

Download on the App Store